Terminal Aerodrome Forecast
Issued by NWS

Home | Current Version | Previous Version | Graphics & Text | Print | Product List | Glossary On
Versions: 1 2 3 4 5 6 7 8 9 10 11 12 13 14 15 16 17 18 19 20 21 22 23 24
000
FTUS43 KGRB 092323
TAFCWA
TAF
KCWA 092323Z 1000/1024 31007KT P6SM SCT025 SCT035
     FM100900 29004KT P6SM BKN023
     FM101700 32007KT P6SM BKN035
      AMD LTD TO CLD VIS AND WIND 1004/1012=

USA.gov is the U.S. government's official web portal to all federal, state and local government web resources and services.